FW3867 Weather Reports


time (UTC)temp
C
wind
direction
speed
KPH
gust
KPH
rain 1hr
cm
rain 24hr
cm
rain mn
cm
humidity
%
barometer
mb
20260509113031 7 188 9.7 14.5 0.33 0.56 0.43 97 1010.7
20260509111531 7 204 6.4 14.5 0.25 0.46 0.33 96 1010.9
20260509110030 7 215 8.0 12.9 0.20 0.38 0.25 96 1010.9
20260509104529 7 217 8.0 12.9 0.15 0.30 0.18 96 1010.7
20260509103025 7 213 9.7 16.1 0.10 0.23 0.10 95 1010.6
20260509101525 7 195 11.3 16.1 0.08 0.20 0.08 94 1010.5
20260509100023 7 224 9.7 22.5 0.05 0.18 0.05 94 1010.5
20260509094524 7 221 12.9 22.5 0.03 0.15 0.03 93 1010.7
20260509093019 7 224 12.9 20.9 0.00 0.13 0.00 92 1010.6
20260509091518 7 221 12.9 19.3 0.00 0.13 0.00 92 1010.7
20260509090042 7 221 9.7 17.7 0.00 0.13 0.00 92 1010.5
20260509084522 7 220 9.7 14.5 0.00 0.13 0.00 91 1010.6
20260509083037 7 223 8.0 11.3 0.00 0.13 0.00 91 1010.8
20260509081508 7 211 9.7 16.1 0.00 0.13 0.00 91 1010.9
20260509080011 7 218 9.7 14.5 0.00 0.13 0.00 91 1010.9
20260509074508 6 217 8.0 16.1 0.00 0.13 0.00 90 1011.0
20260509073002 6 215 9.7 14.5 0.00 0.13 0.00 88 1011.4
20260509071602 6 213 9.7 12.9 0.00 0.13 0.00 85 1011.4
20260509070059 6 226 9.7 14.5 0.00 0.13 0.00 83 1011.6
20260509064554 6 234 11.3 17.7 0.00 0.13 0.00 80 1011.9
20260509063104 6 222 8.0 14.5 0.00 0.13 0.00 79 1012.1
20260509061522 6 223 9.7 14.5 0.00 0.13 0.00 80 1012.2
20260509060020 6 213 8.0 12.9 0.00 0.13 0.00 78 1012.3
20260509054545 7 218 9.7 12.9 0.00 0.13 0.00 74 1012.4
20260509053046 7 207 8.0 11.3 0.00 0.13 0.00 69 1012.6
20260509051543 7 224 6.4 9.7 0.00 0.13 0.00 67 1012.7
20260509050050 7 26 1.6 3.2 0.00 0.13 0.00 67 1012.7
20260509044536 7 26 0.0 1.6 0.00 0.13 0.13 68 1012.7
20260509043042 7 26 0.0 1.6 0.00 0.13 0.13 67 1012.7
20260509041535 7 26 1.6 6.4 0.00 0.13 0.13 65 1012.7
20260509040030 7 27 4.8 8.0 0.00 0.13 0.13 64 1012.8
20260509034530 7 27 3.2 8.0 0.00 0.13 0.13 64 1012.9
20260509033037 7 27 4.8 12.9 0.00 0.13 0.13 64 1013.1
20260509031558 7 27 4.8 8.0 0.00 0.13 0.13 65 1013.0
20260509030059 7 27 4.8 8.0 0.00 0.13 0.13 66 1013.2
20260509024604 7 27 4.8 9.7 0.00 0.13 0.13 66 1013.2
20260509023055 7 27 0.0 0.0 0.00 0.13 0.13 67 1013.3
20260509021555 7 27 0.0 4.8 0.00 0.13 0.13 66 1013.3
20260509020056 8 27 1.6 4.8 0.00 0.13 0.13 65 1013.4
20260509014552 8 27 0.0 6.4 0.00 0.13 0.13 65 1013.3
20260509013055 8 27 4.8 8.0 0.00 0.13 0.13 65 1013.2
20260509011601 8 27 3.2 8.0 0.00 0.13 0.13 65 1013.0
20260509010055 8 27 4.8 9.7 0.00 0.13 0.13 64 1012.8
20260509004557 8 26 1.6 4.8 0.00 0.13 0.13 61 1012.6
20260509003048 8 27 1.6 6.4 0.00 0.13 0.13 61 1012.4
20260509001551 8 27 3.2 6.4 0.00 0.13 0.13 60 1012.3
20260509000048 9 28 0.0 6.4 0.00 0.13 0.13 61 1012.2
20260508234515 10 42 1.6 8.0 0.00 0.13 0.13 59 1012.1
20260508233015 10 26 6.4 8.0 0.00 0.13 0.13 57 1012.0
20260508231512 10 26 4.8 9.7 0.00 0.13 0.13 57 1011.9
20260508230012 10 27 4.8 9.7 0.00 0.13 0.13 56 1011.7
20260508224529 10 30 4.8 14.5 0.00 0.13 0.13 57 1011.9
20260508223012 11 30 8.0 14.5 0.00 0.13 0.13 55 1011.9
20260508221508 11 29 11.3 16.1 0.00 0.13 0.13 55 1011.8
20260508220009 11 28 4.8 9.7 0.00 0.13 0.13 57 1011.9
20260508214507 10 28 3.2 12.9 0.00 0.13 0.13 58 1011.9
20260508213008 10 27 6.4 12.9 0.00 0.13 0.13 57 1012.0
20260508211503 11 28 9.7 17.7 0.00 0.13 0.13 56 1012.1
20260508210002 11 29 3.2 8.0 0.00 0.13 0.13 56 1012.1
20260508204502 11 27 3.2 16.1 0.00 0.13 0.13 56 1012.2
20260508203107 11 28 17.7 25.7 0.00 0.13 0.13 54 1012.2
20260508201534 11 330 6.4 20.9 0.00 0.13 0.13 52 1012.5
20260508200041 11 346 12.9 37.0 0.00 0.13 0.13 52 1012.5
20260508194523 10 287 9.7 24.1 0.00 0.13 0.13 56 1012.7
20260508193021 10 328 14.5 25.7 0.00 0.13 0.13 57 1013.0
20260508191518 10 326 11.3 22.5 0.00 0.13 0.13 58 1013.0
20260508190020 10 309 11.3 24.1 0.00 0.13 0.13 59 1013.2
20260508184523 9 300 1.6 16.1 0.00 0.13 0.13 62 1013.2
20260508183010 8 348 11.3 24.1 0.00 0.13 0.13 64 1013.3
20260508181507 8 296 9.7 29.0 0.00 0.13 0.13 65 1013.6
20260508180005 8 324 11.3 24.1 0.00 0.13 0.13 66 1013.9
20260508174506 8 294 14.5 29.0 0.00 0.13 0.13 67 1014.0
20260508173103 7 310 12.9 25.7 0.00 0.13 0.13 71 1014.1
20260508171556 7 301 14.5 24.1 0.00 0.13 0.13 70 1014.2
20260508170051 6 294 9.7 22.5 0.00 0.13 0.13 76 1014.3
20260508164547 6 232 0.0 9.7 0.00 0.13 0.13 81 1014.4
20260508163048 5 271 4.8 11.3 0.00 0.13 0.13 83 1014.5
20260508161545 5 52 0.0 6.4 0.00 0.13 0.13 86 1014.7
20260508160042 5 59 3.2 11.3 0.00 0.13 0.13 88 1014.5
20260508154541 4 338 1.6 8.0 0.00 0.13 0.13 90 1014.5
20260508153040 3 28 4.8 9.7 0.00 0.13 0.13 90 1014.5
20260508151544 3 28 6.4 14.5 0.00 0.13 0.13 90 1014.4
20260508150018 3 346 6.4 16.1 0.00 0.13 0.13 92 1014.3
20260508144519 2 355 4.8 8.0 0.00 0.13 0.13 94 1014.0
20260508143046 2 307 8.0 12.9 0.00 0.13 0.13 94 1014.3
20260508141538 2 9 4.8 16.1 0.03 0.13 0.13 93 1014.2
20260508140042 2 9 9.7 16.1 0.05 0.13 0.13 93 1014.6
20260508134532 2 9 4.8 12.9 0.08 0.13 0.13 92 1014.1
20260508133030 1 26 3.2 9.7 0.10 0.13 0.13 92 1013.9
20260508131529 2 305 11.3 16.1 0.10 0.10 0.10 91 1014.0
20260508130027 2 300 9.7 17.7 0.08 0.08 0.08 89 1014.1
20260508124521 2 296 8.0 19.3 0.05 0.05 0.05 87 1014.0
20260508123018 3 298 11.3 24.1 0.03 0.03 0.03 83 1013.6
20260508121519 4 247 11.3 19.3 0.00 0.00 0.00 80 1013.4
20260508120017 4 223 8.0 12.9 0.00 0.00 0.00 80 1012.6
20260508114525 4 217 6.4 11.3 0.00 0.00 0.00 81 1012.4